• In Uzbekistan
  • List of Countries
  • For 7 days
  • Water Temperature
  • Satellite Maps
  • Weather Map
  • Weather Widgets
  • user-avatar
    Login

    Hourly Weather Hobart

    Today, 27 February, Monday

    Time Temperature Precipitation Wind Pressure Humidity
    00:00 +10°C° 0 mm 2 mps 756 mmHg 89%
    01:00 +10°C° 0 mm 2 mps 756 mmHg 89%
    02:00 +10°C° 0 mm 2 mps 756 mmHg 88%
    03:00 +9°C° 0 mm 2 mps 756 mmHg 88%
    04:00 +9°C° 0 mm 3 mps 755 mmHg 87%
    05:00 +10°C° 0 mm 3 mps 756 mmHg 83%
    06:00 +11°C° 0 mm 3 mps 756 mmHg 79%
    07:00 +12°C° 0 mm 3 mps 756 mmHg 75%
    08:00 +17°C° 0 mm 3 mps 756 mmHg 63%
    09:00 +20°C° 0 mm 3 mps 756 mmHg 51%
    10:00 +23°C° 0 mm 4 mps 756 mmHg 41%
    11:00 +26°C° 0 mm 4 mps 756 mmHg 36%
    12:00 +27°C° 0 mm 4 mps 756 mmHg 31%
    13:00 +29°C° 0 mm 5 mps 755 mmHg 27%
    14:00 +29°C° 0 mm 5 mps 755 mmHg 28%
    15:00 +29°C° 0 mm 5 mps 755 mmHg 29%
    16:00 +29°C° 0 mm 6 mps 754 mmHg 30%
    17:00 +26°C° 0 mm 5 mps 754 mmHg 43%
    18:00 +22°C° 0 mm 5 mps 754 mmHg 56%
    19:00 +19°C° 0 mm 5 mps 754 mmHg 69%
    20:00 +16°C° 0 mm 5 mps 754 mmHg 74%
    21:00 +15°C° 0 mm 4 mps 755 mmHg 78%
    22:00 +14°C° 0 mm 4 mps 755 mmHg 82%
    23:00 +13°C° 0 mm 4 mps 755 mmHg 84%

    Tomorrow, 28 February, Tuesday

    Time Temperature Precipitation Wind Pressure Humidity
    00:00 +13°C° 0 mm 4 mps 754 mmHg 86%
    01:00 +13°C° 0 mm 4 mps 754 mmHg 88%
    02:00 +12°C° 0 mm 4 mps 754 mmHg 89%
    03:00 +12°C° 0 mm 3 mps 754 mmHg 90%
    04:00 +12°C° 0 mm 3 mps 754 mmHg 90%
    05:00 +12°C° 0 mm 3 mps 754 mmHg 86%
    06:00 +13°C° 0 mm 3 mps 754 mmHg 82%
    07:00 +14°C° 0 mm 3 mps 754 mmHg 78%
    08:00 +19°C° 0 mm 3 mps 754 mmHg 65%
    09:00 +24°C° 0 mm 2 mps 754 mmHg 51%
    10:00 +27°C° 0 mm 2 mps 754 mmHg 38%
    11:00 +29°C° 0 mm 2 mps 754 mmHg 33%
    12:00 +31°C° 0 mm 2 mps 754 mmHg 28%
    13:00 +34°C° 0 mm 2 mps 753 mmHg 23%
    14:00 +32°C° 0 mm 2 mps 753 mmHg 24%
    15:00 +33°C° 0 mm 3 mps 753 mmHg 25%
    16:00 +31°C° 0 mm 3 mps 752 mmHg 26%
    17:00 +27°C° 0 mm 3 mps 753 mmHg 43%
    18:00 +24°C° 0 mm 2 mps 753 mmHg 59%
    19:00 +19°C° 0 mm 2 mps 753 mmHg 76%
    20:00 +18°C° 0 mm 2 mps 753 mmHg 81%
    21:00 +16°C° 0 mm 2 mps 753 mmHg 86%
    22:00 +15°C° 0 mm 1 mps 754 mmHg 91%
    23:00 +15°C° 0 mm 2 mps 753 mmHg 90%

    Day after tomorrow, 1 March, Wednesday

    Time Temperature Precipitation Wind Pressure Humidity
    00:00 +15°C° 0 mm 2 mps 753 mmHg 89%
    01:00 +16°C° 0 mm 2 mps 753 mmHg 88%
    02:00 +15°C° 0 mm 2 mps 753 mmHg 89%
    03:00 +14°C° 0 mm 1 mps 753 mmHg 90%
    04:00 +14°C° 0 mm 1 mps 752 mmHg 91%
    05:00 +15°C° 0 mm 1 mps 753 mmHg 89%
    06:00 +16°C° 0 mm 1 mps 753 mmHg 86%
    07:00 +19°C° 0 mm 1 mps 753 mmHg 83%
    08:00 +22°C° 0 mm 1 mps 753 mmHg 70%
    09:00 +25°C° 0 mm 1 mps 753 mmHg 57%
    10:00 +29°C° 0 mm 1 mps 754 mmHg 44%
    11:00 +30°C° 0 mm 1 mps 753 mmHg 40%
    12:00 +31°C° 0 mm 2 mps 753 mmHg 37%
    13:00 +32°C° 0 mm 2 mps 753 mmHg 33%
    14:00 +32°C° 0 mm 2 mps 752 mmHg 35%
    15:00 +31°C° 0 mm 3 mps 752 mmHg 37%
    16:00 +30°C° 0 mm 3 mps 752 mmHg 40%
    17:00 +28°C° 0.1 mm 3 mps 752 mmHg 52%
    18:00 +25°C° 0.1 mm 2 mps 752 mmHg 65%
    19:00 +21°C° 0.1 mm 2 mps 752 mmHg 78%
    20:00 +20°C° 0 mm 2 mps 752 mmHg 83%
    21:00 +19°C° 0 mm 2 mps 752 mmHg 88%
    22:00 +17°C° 0 mm 2 mps 753 mmHg 92%
    23:00 +17°C° 0 mm 2 mps 752 mmHg 92%

    2 March, Thursday

    Time Temperature Precipitation Wind Pressure Humidity
    00:00 +17°C° 0 mm 2 mps 752 mmHg 91%
    01:00 +17°C° 0 mm 2 mps 752 mmHg 91%
    02:00 +17°C° 0 mm 2 mps 752 mmHg 92%
    03:00 +16°C° 0 mm 2 mps 751 mmHg 92%
    04:00 +16°C° 0 mm 2 mps 751 mmHg 93%
    05:00 +17°C° 0 mm 2 mps 752 mmHg 90%
    06:00 +18°C° 0 mm 2 mps 752 mmHg 88%
    07:00 +18°C° 0 mm 2 mps 752 mmHg 85%
    08:00 +21°C° 0 mm 2 mps 753 mmHg 76%
    09:00 +24°C° 0 mm 2 mps 753 mmHg 66%
    10:00 +27°C° 0 mm 2 mps 753 mmHg 57%
    11:00 +27°C° 0.1 mm 3 mps 753 mmHg 56%
    12:00 +27°C° 0.1 mm 3 mps 753 mmHg 55%
    13:00 +27°C° 0.1 mm 4 mps 752 mmHg 54%
    14:00 +26°C° 0.3 mm 4 mps 752 mmHg 59%
    15:00 +25°C° 0.3 mm 4 mps 752 mmHg 64%
    16:00 +23°C° 0.3 mm 4 mps 752 mmHg 68%
    17:00 +21°C° 0.1 mm 4 mps 753 mmHg 76%
    18:00 +19°C° 0.1 mm 4 mps 753 mmHg 83%
    19:00 +17°C° 0.1 mm 4 mps 754 mmHg 91%
    20:00 +16°C° 0 mm 3 mps 754 mmHg 92%
    21:00 +16°C° 0 mm 3 mps 754 mmHg 93%
    22:00 +14°C° 0 mm 3 mps 755 mmHg 93%
    23:00 +14°C° 0 mm 3 mps 755 mmHg 93%

    3 March, Friday

    Time Temperature Precipitation Wind Pressure Humidity
    00:00 +13°C° 0 mm 3 mps 755 mmHg 93%
    01:00 +13°C° 0 mm 3 mps 755 mmHg 92%
    02:00 +13°C° 0 mm 3 mps 755 mmHg 92%
    03:00 +13°C° 0 mm 3 mps 755 mmHg 91%
    04:00 +13°C° 0 mm 3 mps 755 mmHg 91%
    05:00 +13°C° 0 mm 3 mps 756 mmHg 90%
    06:00 +13°C° 0 mm 3 mps 756 mmHg 89%
    07:00 +13°C° 0 mm 3 mps 757 mmHg 89%
    08:00 +14°C° 0 mm 3 mps 757 mmHg 84%
    09:00 +14°C° 0 mm 3 mps 757 mmHg 80%
    10:00 +16°C° 0 mm 3 mps 757 mmHg 76%
    11:00 +17°C° 0 mm 3 mps 757 mmHg 71%
    12:00 +18°C° 0 mm 2 mps 757 mmHg 66%
    13:00 +19°C° 0 mm 2 mps 757 mmHg 61%
    14:00 +19°C° 0 mm 2 mps 757 mmHg 60%
    15:00 +20°C° 0 mm 2 mps 756 mmHg 59%
    16:00 +20°C° 0 mm 3 mps 756 mmHg 58%
    17:00 +18°C° 0 mm 3 mps 756 mmHg 66%
    18:00 +16°C° 0 mm 3 mps 756 mmHg 75%
    19:00 +13°C° 0 mm 3 mps 756 mmHg 84%
    20:00 +12°C° 0 mm 3 mps 756 mmHg 88%
    21:00 +11°C° 0 mm 3 mps 757 mmHg 92%
    22:00 +10°C° 0 mm 3 mps 757 mmHg 96%
    23:00 +10°C° 0 mm 3 mps 756 mmHg 97%

    4 March, Saturday

    Time Temperature Precipitation Wind Pressure Humidity
    00:00 +10°C° 0 mm 3 mps 756 mmHg 97%
    01:00 +10°C° 0 mm 3 mps 756 mmHg 97%
    02:00 +10°C° 0 mm 3 mps 755 mmHg 96%
    03:00 +10°C° 0 mm 2 mps 755 mmHg 96%
    04:00 +10°C° 0 mm 2 mps 754 mmHg 96%
    05:00 +12°C° 0 mm 2 mps 755 mmHg 94%
    06:00 +13°C° 0 mm 2 mps 755 mmHg 91%
    07:00 +14°C° 0 mm 2 mps 755 mmHg 89%
    08:00 +18°C° 0 mm 1 mps 754 mmHg 78%
    09:00 +21°C° 0 mm 1 mps 754 mmHg 66%
    10:00 +25°C° 0 mm 1 mps 754 mmHg 55%
    11:00 +25°C° 0 mm 1 mps 754 mmHg 52%
    12:00 +26°C° 0 mm 2 mps 753 mmHg 50%
    13:00 +26°C° 0 mm 2 mps 753 mmHg 48%
    14:00 +25°C° 0 mm 3 mps 752 mmHg 52%
    15:00 +24°C° 0 mm 3 mps 752 mmHg 56%
    16:00 +22°C° 0 mm 3 mps 751 mmHg 60%
    17:00 +20°C° 0 mm 3 mps 751 mmHg 67%
    18:00 +18°C° 0 mm 2 mps 751 mmHg 75%
    19:00 +16°C° 0 mm 2 mps 751 mmHg 83%
    20:00 +15°C° 0 mm 2 mps 751 mmHg 87%
    21:00 +14°C° 0 mm 1 mps 751 mmHg 91%
    22:00 +13°C° 0 mm 1 mps 751 mmHg 96%
    23:00 +12°C° 0 mm 1 mps 750 mmHg 96%
    Show more